This demonstration page uses our WeatherBlox Daily Observations layout. Learn more.

36.19886, -115.1175

Hourly Observations for September 10, 2019

Temp ( °F °C ) Dew Point ( °F °C ) Humidity (%) Winds ( mph kmh ) Pressure ( in mb ) Visibility ( mi km ) Precip ( " mm )
12:53 am 00:53 Clear 83 28.3 40 4.4 22 22 S 8 13 29.65 1004 10 16.09344 0 0
1:53 am 01:53 Clear 79 26.1 40 4.4 25 25 Calm 29.68 1005 10 16.09344 0 0
2:53 am 02:53 Clear 80 26.7 41 5 25 25 SSE 7 11 29.68 1005 10 16.09344 0 0
3:53 am 03:53 Clear 78 25.6 42 5.6 28 28 SSE 7 11 29.68 1005 10 16.09344 0 0
4:53 am 04:53 Clear 76 24.4 42 5.6 30 30 SE 3 6 29.71 1006 10 16.09344 0 0
5:53 am 05:53 Clear 76 24.4 42 5.6 30 30 S 7 11 29.71 1006 10 16.09344 0 0
6:53 am 06:53 Sunny 76 24.4 44 6.7 32 32 SE 8 13 29.74 1007 10 16.09344 0 0
7:53 am 07:53 Sunny 79 26.1 41 5 26 26 SSE 16 26 29.74 1007 10 16.09344 0 0
8:53 am 08:53 Sunny 80 26.7 41 5 25 25 SSE 15 24 29.77 1008 10 16.09344 0 0
9:53 am 09:53 Sunny 83 28.3 40 4.4 22 22 S 10 17 29.74 1007 10 16.09344 0 0
10:53 am 10:53 Sunny 85 29.4 39 3.9 20 20 S 16 26 29.74 1007 10 16.09344 0 0
11:53 am 11:53 Sunny 88 31.1 39 3.9 18 18 SSW 22 35 29.74 1007 10 16.09344 0 0
12:53 pm 12:53 Sunny 90 32.2 37 2.8 15 15 SSW 24 39 29.71 1006 10 16.09344 0 0
1:53 pm 13:53 Sunny 89 31.7 36 2.2 15 15 SSW 9 15 29.68 1005 10 16.09344 0 0
2:53 pm 14:53 Sunny 91 32.8 32 0 12 12 SW 18 30 29.68 1005 10 16.09344 0 0
3:53 pm 15:53 Sunny 92 33.3 24 -4.4 8 8 SSW 17 28 29.65 1004 10 16.09344 0 0
4:53 pm 16:53 Sunny 90 32.2 27 -2.8 10 10 WSW 14 22 29.68 1005 10 16.09344 0 0
5:53 pm 17:53 Sunny 89 31.7 28 -2.2 11 11 SW 16 26 29.65 1004 10 16.09344 0 0
6:53 pm 18:53 Sunny 87 30.6 35 1.7 16 16 SSW 13 20 29.65 1004 10 16.09344 0 0
7:53 pm 19:53 Clear 86 30 38 3.3 18 18 SW 9 15 29.65 1004 10 16.09344 0 0
8:53 pm 20:53 Clear 85 29.4 39 3.9 20 20 S 7 11 29.68 1005 10 16.09344 0 0
9:53 pm 21:53 Clear 83 28.3 35 1.7 18 18 SSW 8 13 29.68 1005 10 16.09344 0 0
10:53 pm 22:53 Clear 81 27.2 36 2.2 20 20 S 10 17 29.71 1006 10 16.09344 0 0
11:53 pm 23:53 Clear 80 26.7 34 1.1 19 19 S 14 22 29.71 1006 10 16.09344 0 0

Powered by AerisWeather